| time (UTC) | temp F | wind direction | speed MPH | gust MPH | rain 1hr in | rain 24hr in | rain mn in | humidity % | barometer mb |
| 20260506091252 | 63 | 197 | 4.0 | 6.0 | 0.00 | 0.00 | 0.00 | 68 | 1004.1 |
| 20260506090750 | 62 | 295 | 1.0 | 2.0 | 0.00 | 0.00 | 0.00 | 69 | 1003.9 |
| 20260506090247 | 62 | 215 | 5.0 | 6.0 | 0.00 | 0.00 | 0.00 | 68 | 1004.1 |
| 20260506085744 | 62 | 151 | 2.0 | 2.0 | 0.00 | 0.00 | 0.00 | 68 | 1004.1 |
| 20260506085240 | 63 | 148 | 2.0 | 2.0 | 0.00 | 0.00 | 0.00 | 67 | 1004.0 |
| 20260506084736 | 62 | 170 | 3.0 | 3.0 | 0.00 | 0.00 | 0.00 | 67 | 1004.1 |
| 20260506084233 | 62 | 160 | 2.0 | 3.0 | 0.00 | 0.00 | 0.00 | 67 | 1004.3 |
| 20260506083730 | 62 | 171 | 2.0 | 2.0 | 0.00 | 0.00 | 0.00 | 67 | 1004.3 |
| 20260506083228 | 62 | 159 | 1.0 | 2.0 | 0.00 | 0.00 | 0.00 | 67 | 1004.4 |
| 20260506082725 | 62 | 162 | 2.0 | 2.0 | 0.00 | 0.00 | 0.00 | 66 | 1004.0 |
| 20260506082220 | 61 | 226 | 2.0 | 3.0 | 0.00 | 0.00 | 0.00 | 68 | 1004.2 |
| 20260506081718 | 61 | 288 | 1.0 | 2.0 | 0.00 | 0.00 | 0.00 | 68 | 1004.2 |
| 20260506081215 | 62 | 322 | 0.0 | 1.0 | 0.00 | 0.00 | 0.00 | 66 | 1004.2 |
| 20260506080713 | 62 | 317 | 0.0 | 0.0 | 0.00 | 0.00 | 0.00 | 64 | 1004.1 |
| 20260506080204 | 62 | 319 | 0.0 | 1.0 | 0.00 | 0.00 | 0.00 | 64 | 1004.2 |
| 20260506073148 | 61 | 5 | 0.0 | 1.0 | 0.00 | 0.00 | 0.00 | 66 | 1004.3 |
| 20260506072644 | 62 | 22 | 0.0 | 0.0 | 0.00 | 0.00 | 0.00 | 64 | 1004.4 |
| 20260506072143 | 61 | 296 | 1.0 | 1.0 | 0.00 | 0.00 | 0.00 | 62 | 1004.5 |
| 20260506071640 | 62 | 335 | 0.0 | 0.0 | 0.00 | 0.00 | 0.00 | 63 | 1004.5 |
| 20260506071138 | 62 | 318 | 0.0 | 0.0 | 0.00 | 0.00 | 0.00 | 62 | 1004.5 |
| 20260506070634 | 63 | 329 | 0.0 | 0.0 | 0.00 | 0.00 | 0.00 | 60 | 1004.5 |
| 20260506070131 | 64 | 296 | 0.0 | 1.0 | 0.00 | 0.00 | 0.00 | 59 | 1004.6 |
| 20260506062109 | 64 | 161 | 2.0 | 3.0 | 0.00 | 0.00 | 0.00 | 56 | 1005.0 |
| 20260506061604 | 64 | 182 | 3.0 | 4.0 | 0.00 | 0.00 | 0.00 | 56 | 1005.2 |
| 20260506061102 | 64 | 153 | 2.0 | 2.0 | 0.00 | 0.00 | 0.00 | 57 | 1005.1 |
| 20260506060601 | 64 | 140 | 1.0 | 1.0 | 0.00 | 0.00 | 0.00 | 57 | 1005.3 |
| 20260506051029 | 65 | 159 | 2.0 | 3.0 | 0.00 | 0.00 | 0.00 | 53 | 1005.8 |
| 20260506050527 | 65 | 186 | 1.0 | 2.0 | 0.00 | 0.00 | 0.00 | 54 | 1005.5 |
| 20260506045018 | 65 | 183 | 1.0 | 2.0 | 0.00 | 0.00 | 0.00 | 52 | 1005.6 |
| 20260506044516 | 65 | 173 | 2.0 | 2.0 | 0.00 | 0.00 | 0.00 | 52 | 1005.5 |
| 20260506044012 | 65 | 239 | 2.0 | 2.0 | 0.00 | 0.00 | 0.00 | 53 | 1005.5 |
| 20260506043509 | 65 | 55 | 2.0 | 3.0 | 0.00 | 0.00 | 0.00 | 53 | 1005.4 |
| 20260506043008 | 65 | 194 | 2.0 | 2.0 | 0.00 | 0.00 | 0.00 | 52 | 1005.6 |
| 20260506042506 | 65 | 189 | 2.0 | 2.0 | 0.00 | 0.00 | 0.00 | 51 | 1005.5 |
| 20260506042004 | 64 | 230 | 3.0 | 6.0 | 0.00 | 0.00 | 0.00 | 54 | 1005.5 |
| 20260506041502 | 64 | 177 | 2.0 | 2.0 | 0.00 | 0.00 | 0.00 | 53 | 1005.6 |
| 20260506040959 | 64 | 140 | 2.0 | 3.0 | 0.00 | 0.00 | 0.00 | 54 | 1005.5 |
| 20260506040456 | 65 | 166 | 0.0 | 1.0 | 0.00 | 0.00 | 0.00 | 53 | 1005.4 |
| 20260506035952 | 64 | 181 | 0.0 | 1.0 | 0.00 | 0.08 | 0.08 | 54 | 1005.7 |
| 20260506035449 | 62 | 308 | 0.0 | 0.0 | 0.00 | 0.08 | 0.08 | 57 | 1005.6 |
| 20260506034946 | 62 | 46 | 0.0 | 1.0 | 0.00 | 0.08 | 0.08 | 60 | 1005.6 |
| 20260506034443 | 62 | 97 | 1.0 | 1.0 | 0.00 | 0.08 | 0.08 | 58 | 1005.8 |
| 20260506033940 | 62 | 252 | 2.0 | 2.0 | 0.00 | 0.08 | 0.08 | 58 | 1005.7 |
| 20260506033438 | 62 | 19 | 0.0 | 0.0 | 0.00 | 0.08 | 0.08 | 60 | 1005.7 |
| 20260506032934 | 62 | 78 | 0.0 | 0.0 | 0.00 | 0.08 | 0.08 | 60 | 1005.5 |
| 20260506032432 | 63 | 79 | 0.0 | 0.0 | 0.00 | 0.08 | 0.08 | 58 | 1005.5 |
| 20260506031928 | 63 | 320 | 0.0 | 0.0 | 0.00 | 0.08 | 0.08 | 57 | 1005.5 |
| 20260506031425 | 63 | 356 | 0.0 | 0.0 | 0.00 | 0.08 | 0.08 | 55 | 1005.6 |
| 20260506030923 | 64 | 291 | 0.0 | 0.0 | 0.00 | 0.08 | 0.08 | 55 | 1005.7 |
| 20260506030421 | 64 | 24 | 0.0 | 0.0 | 0.00 | 0.08 | 0.08 | 56 | 1005.5 |
| 20260506025917 | 64 | 21 | 0.0 | 0.0 | 0.00 | 0.08 | 0.08 | 54 | 1005.6 |
| 20260506025415 | 64 | 35 | 1.0 | 1.0 | 0.00 | 0.08 | 0.08 | 56 | 1005.5 |
| 20260506024911 | 64 | 193 | 1.0 | 1.0 | 0.00 | 0.08 | 0.08 | 55 | 1005.6 |
| 20260506024408 | 64 | 46 | 0.0 | 1.0 | 0.00 | 0.08 | 0.08 | 55 | 1005.7 |
| 20260506023904 | 65 | 356 | 0.0 | 0.0 | 0.00 | 0.08 | 0.08 | 54 | 1005.6 |
| 20260506023401 | 64 | 24 | 0.0 | 1.0 | 0.00 | 0.08 | 0.08 | 55 | 1005.7 |
| 20260506022857 | 65 | 6 | 0.0 | 0.0 | 0.00 | 0.08 | 0.08 | 55 | 1005.6 |
| 20260506022356 | 65 | 82 | 0.0 | 0.0 | 0.00 | 0.08 | 0.08 | 53 | 1005.8 |
| 20260506021853 | 65 | 3 | 0.0 | 0.0 | 0.00 | 0.08 | 0.08 | 53 | 1005.6 |
| 20260506021350 | 66 | 251 | 0.0 | 0.0 | 0.00 | 0.08 | 0.08 | 52 | 1005.6 |
| 20260506020846 | 66 | 176 | 2.0 | 2.0 | 0.00 | 0.08 | 0.08 | 51 | 1005.5 |
| 20260506020345 | 65 | 40 | 0.0 | 0.0 | 0.00 | 0.08 | 0.08 | 54 | 1005.5 |
| 20260506015842 | 65 | 355 | 0.0 | 0.0 | 0.00 | 0.08 | 0.08 | 52 | 1005.6 |
| 20260506015339 | 66 | 39 | 0.0 | 0.0 | 0.00 | 0.08 | 0.08 | 50 | 1005.6 |
| 20260506014836 | 67 | 107 | 0.0 | 0.0 | 0.00 | 0.08 | 0.08 | 50 | 1005.6 |
| 20260506014333 | 68 | 166 | 0.0 | 1.0 | 0.00 | 0.08 | 0.08 | 50 | 1005.6 |
| 20260506013829 | 68 | 154 | 1.0 | 2.0 | 0.00 | 0.08 | 0.08 | 47 | 1005.6 |
| 20260506013327 | 68 | 206 | 0.0 | 0.0 | 0.00 | 0.08 | 0.08 | 48 | 1005.6 |
| 20260506012823 | 69 | 227 | 0.0 | 0.0 | 0.00 | 0.08 | 0.08 | 46 | 1005.4 |
| 20260506012321 | 70 | 156 | 0.0 | 0.0 | 0.00 | 0.08 | 0.08 | 45 | 1005.3 |
| 20260506011818 | 71 | 119 | 3.0 | 6.0 | 0.00 | 0.08 | 0.08 | 44 | 1005.4 |
| 20260506011314 | 70 | 172 | 0.0 | 0.0 | 0.00 | 0.08 | 0.08 | 45 | 1005.2 |
| 20260506010812 | 71 | 177 | 2.0 | 3.0 | 0.00 | 0.08 | 0.08 | 43 | 1005.2 |
| 20260506010309 | 71 | 225 | 1.0 | 2.0 | 0.00 | 0.08 | 0.08 | 44 | 1005.2 |
| 20260506005806 | 71 | 161 | 1.0 | 1.0 | 0.00 | 0.08 | 0.08 | 44 | 1005.0 |
| 20260506005305 | 71 | 190 | 3.0 | 3.0 | 0.00 | 0.08 | 0.08 | 42 | 1005.0 |
| 20260506004759 | 72 | 151 | 3.0 | 4.0 | 0.00 | 0.08 | 0.08 | 43 | 1005.0 |
| 20260506004257 | 72 | 120 | 1.0 | 1.0 | 0.00 | 0.08 | 0.08 | 43 | 1005.0 |
| 20260506003752 | 72 | 184 | 6.0 | 7.0 | 0.00 | 0.08 | 0.08 | 42 | 1005.1 |
| 20260506003249 | 72 | 187 | 3.0 | 3.0 | 0.00 | 0.08 | 0.08 | 42 | 1004.8 |
| 20260506002745 | 72 | 190 | 1.0 | 3.0 | 0.00 | 0.08 | 0.08 | 42 | 1004.6 |
| 20260506002241 | 72 | 172 | 5.0 | 6.0 | 0.00 | 0.08 | 0.08 | 43 | 1004.7 |
| 20260506001737 | 72 | 254 | 3.0 | 4.0 | 0.00 | 0.08 | 0.08 | 43 | 1004.6 |
| 20260506001235 | 72 | 238 | 5.0 | 6.0 | 0.00 | 0.08 | 0.08 | 43 | 1004.4 |
| 20260506000732 | 72 | 179 | 4.0 | 7.0 | 0.00 | 0.08 | 0.08 | 44 | 1004.7 |
| 20260506000229 | 72 | 217 | 8.0 | 9.0 | 0.00 | 0.08 | 0.08 | 43 | 1004.6 |
| 20260505235726 | 73 | 117 | 2.0 | 3.0 | 0.00 | 0.08 | 0.08 | 44 | 1004.6 |
| 20260505235224 | 73 | 132 | 4.0 | 6.0 | 0.00 | 0.08 | 0.08 | 44 | 1004.5 |
| 20260505234721 | 73 | 198 | 2.0 | 3.0 | 0.00 | 0.08 | 0.08 | 44 | 1004.4 |
| 20260505234218 | 73 | 136 | 5.0 | 7.0 | 0.00 | 0.08 | 0.08 | 44 | 1004.6 |
| 20260505233714 | 73 | 256 | 2.0 | 2.0 | 0.00 | 0.08 | 0.08 | 44 | 1004.1 |
| 20260505233213 | 73 | 215 | 3.0 | 4.0 | 0.00 | 0.08 | 0.08 | 44 | 1004.2 |
| 20260505232709 | 74 | 214 | 8.0 | 10.0 | 0.00 | 0.08 | 0.08 | 43 | 1004.4 |
| 20260505232207 | 73 | 98 | 3.0 | 4.0 | 0.00 | 0.08 | 0.08 | 44 | 1004.4 |
| 20260505231703 | 74 | 241 | 2.0 | 3.0 | 0.00 | 0.08 | 0.08 | 44 | 1004.3 |
| 20260505231203 | 74 | 142 | 5.0 | 7.0 | 0.00 | 0.08 | 0.08 | 43 | 1004.3 |
| 20260505230700 | 74 | 166 | 5.0 | 8.0 | 0.00 | 0.08 | 0.08 | 43 | 1004.2 |
| 20260505230156 | 74 | 261 | 10.0 | 13.0 | 0.00 | 0.08 | 0.08 | 43 | 1004.1 |
| 20260505225653 | 75 | 236 | 5.0 | 7.0 | 0.00 | 0.08 | 0.08 | 43 | 1004.2 |
| 20260505225149 | 75 | 200 | 4.0 | 7.0 | 0.00 | 0.08 | 0.08 | 43 | 1004.1 |
| 20260505224645 | 75 | 303 | 3.0 | 4.0 | 0.00 | 0.08 | 0.08 | 43 | 1004.3 |
| 20260505224143 | 75 | 168 | 6.0 | 9.0 | 0.00 | 0.08 | 0.08 | 43 | 1004.1 |
| 20260505223641 | 75 | 180 | 7.0 | 9.0 | 0.00 | 0.08 | 0.08 | 42 | 1004.2 |
| 20260505223136 | 75 | 172 | 7.0 | 9.0 | 0.00 | 0.08 | 0.08 | 43 | 1004.2 |
| 20260505222632 | 74 | 156 | 4.0 | 8.0 | 0.00 | 0.08 | 0.08 | 43 | 1004.1 |
| 20260505222129 | 74 | 229 | 5.0 | 6.0 | 0.00 | 0.08 | 0.08 | 43 | 1004.0 |
| 20260505221626 | 75 | 158 | 5.0 | 6.0 | 0.00 | 0.08 | 0.08 | 44 | 1004.3 |
| 20260505221122 | 75 | 181 | 6.0 | 7.0 | 0.00 | 0.08 | 0.08 | 44 | 1004.3 |
| 20260505220620 | 75 | 148 | 6.0 | 8.0 | 0.00 | 0.08 | 0.08 | 43 | 1004.1 |
| 20260505220117 | 75 | 226 | 4.0 | 6.0 | 0.00 | 0.08 | 0.08 | 43 | 1004.0 |
| 20260505215615 | 75 | 181 | 4.0 | 7.0 | 0.00 | 0.08 | 0.08 | 43 | 1003.9 |
| 20260505215113 | 75 | 269 | 11.0 | 14.0 | 0.00 | 0.08 | 0.08 | 43 | 1004.3 |
| 20260505214611 | 76 | 194 | 7.0 | 8.0 | 0.00 | 0.08 | 0.08 | 44 | 1004.0 |
| 20260505214108 | 76 | 191 | 4.0 | 6.0 | 0.00 | 0.08 | 0.08 | 44 | 1004.0 |
| 20260505213605 | 75 | 140 | 3.0 | 4.0 | 0.00 | 0.08 | 0.08 | 45 | 1004.0 |
| 20260505213101 | 75 | 172 | 4.0 | 6.0 | 0.00 | 0.08 | 0.08 | 44 | 1003.9 |
| 20260505212552 | 75 | 199 | 2.0 | 3.0 | 0.00 | 0.08 | 0.08 | 46 | 1004.1 |
| 20260505212050 | 75 | 204 | 7.0 | 8.0 | 0.00 | 0.08 | 0.08 | 44 | 1004.0 |
| 20260505211546 | 75 | 188 | 5.0 | 7.0 | 0.00 | 0.08 | 0.08 | 45 | 1003.9 |
| 20260505211043 | 75 | 207 | 9.0 | 11.0 | 0.00 | 0.08 | 0.08 | 44 | 1003.9 |
| 20260505210540 | 75 | 215 | 8.0 | 11.0 | 0.00 | 0.08 | 0.08 | 44 | 1004.1 |
| 20260505210037 | 75 | 228 | 4.0 | 6.0 | 0.00 | 0.08 | 0.08 | 44 | 1003.9 |
| 20260505205535 | 75 | 186 | 1.0 | 2.0 | 0.00 | 0.08 | 0.08 | 44 | 1003.9 |
| 20260505205032 | 76 | 235 | 5.0 | 8.0 | 0.00 | 0.08 | 0.08 | 43 | 1003.7 |
| 20260505204530 | 76 | 260 | 4.0 | 6.0 | 0.00 | 0.08 | 0.08 | 43 | 1003.7 |
| 20260505204027 | 75 | 190 | 6.0 | 9.0 | 0.00 | 0.08 | 0.08 | 43 | 1003.8 |
| 20260505203523 | 76 | 210 | 10.0 | 14.0 | 0.00 | 0.08 | 0.08 | 43 | 1004.1 |
| 20260505203021 | 76 | 234 | 4.0 | 7.0 | 0.00 | 0.08 | 0.08 | 45 | 1003.9 |
| 20260505202516 | 75 | 228 | 6.0 | 8.0 | 0.00 | 0.08 | 0.08 | 43 | 1004.0 |
| 20260505202012 | 76 | 239 | 5.0 | 9.0 | 0.00 | 0.08 | 0.08 | 43 | 1003.8 |
| 20260505201510 | 76 | 164 | 9.0 | 14.0 | 0.00 | 0.08 | 0.08 | 43 | 1003.9 |
| 20260505201007 | 77 | 264 | 5.0 | 8.0 | 0.00 | 0.08 | 0.08 | 43 | 1003.8 |
| 20260505200505 | 75 | 206 | 7.0 | 10.0 | 0.00 | 0.08 | 0.08 | 43 | 1004.2 |
| 20260505200001 | 77 | 218 | 7.0 | 10.0 | 0.00 | 0.08 | 0.08 | 43 | 1004.0 |
| 20260505195458 | 77 | 223 | 1.0 | 2.0 | 0.00 | 0.08 | 0.08 | 45 | 1003.9 |
| 20260505194955 | 77 | 2 | 3.0 | 4.0 | 0.00 | 0.08 | 0.08 | 46 | 1004.0 |
| 20260505194453 | 77 | 157 | 3.0 | 4.0 | 0.00 | 0.08 | 0.08 | 44 | 1004.0 |
| 20260505193952 | 77 | 163 | 13.0 | 23.0 | 0.00 | 0.08 | 0.08 | 42 | 1004.0 |
| 20260505193450 | 78 | 227 | 9.0 | 11.0 | 0.00 | 0.08 | 0.08 | 41 | 1003.8 |
| 20260505192947 | 77 | 188 | 5.0 | 7.0 | 0.00 | 0.08 | 0.08 | 42 | 1004.0 |
| 20260505192446 | 77 | 129 | 5.0 | 6.0 | 0.00 | 0.08 | 0.08 | 43 | 1004.1 |
| 20260505191943 | 78 | 182 | 8.0 | 10.0 | 0.00 | 0.08 | 0.08 | 42 | 1004.2 |
| 20260505191442 | 76 | 79 | 3.0 | 4.0 | 0.00 | 0.08 | 0.08 | 43 | 1004.1 |
| 20260505190938 | 76 | 164 | 5.0 | 13.0 | 0.00 | 0.08 | 0.08 | 43 | 1004.4 |
| 20260505190433 | 77 | 224 | 12.0 | 15.0 | 0.00 | 0.08 | 0.08 | 42 | 1004.4 |
| 20260505185929 | 78 | 144 | 9.0 | 13.0 | 0.00 | 0.08 | 0.08 | 44 | 1004.5 |
| 20260505185427 | 77 | 218 | 5.0 | 8.0 | 0.00 | 0.08 | 0.08 | 42 | 1004.4 |
| 20260505184923 | 75 | 168 | 4.0 | 6.0 | 0.00 | 0.08 | 0.08 | 44 | 1004.5 |
| 20260505184420 | 75 | 189 | 9.0 | 9.0 | 0.00 | 0.08 | 0.08 | 44 | 1004.9 |
| 20260505183916 | 75 | 219 | 7.0 | 9.0 | 0.00 | 0.08 | 0.08 | 44 | 1004.7 |
| 20260505183413 | 75 | 211 | 4.0 | 6.0 | 0.00 | 0.08 | 0.08 | 45 | 1004.8 |
| 20260505182910 | 75 | 234 | 3.0 | 4.0 | 0.00 | 0.08 | 0.08 | 45 | 1004.9 |
| 20260505182407 | 76 | 244 | 7.0 | 9.0 | 0.00 | 0.08 | 0.08 | 42 | 1004.8 |
| 20260505181903 | 77 | 348 | 4.0 | 6.0 | 0.00 | 0.08 | 0.08 | 42 | 1004.9 |
| 20260505181401 | 77 | 70 | 7.0 | 10.0 | 0.00 | 0.08 | 0.08 | 41 | 1004.9 |
| 20260505180857 | 77 | 143 | 5.0 | 6.0 | 0.00 | 0.08 | 0.08 | 41 | 1005.2 |
| 20260505180354 | 78 | 214 | 6.0 | 8.0 | 0.00 | 0.08 | 0.08 | 40 | 1005.4 |
| 20260505175850 | 78 | 68 | 5.0 | 7.0 | 0.00 | 0.08 | 0.08 | 39 | 1004.9 |
| 20260505175347 | 77 | 172 | 7.0 | 11.0 | 0.00 | 0.08 | 0.08 | 40 | 1005.0 |
| 20260505174843 | 77 | 153 | 14.0 | 18.0 | 0.00 | 0.08 | 0.08 | 41 | 1005.2 |
| 20260505174341 | 76 | 201 | 4.0 | 6.0 | 0.00 | 0.08 | 0.08 | 42 | 1005.2 |
| 20260505173836 | 76 | 171 | 5.0 | 8.0 | 0.00 | 0.08 | 0.08 | 40 | 1005.1 |
| 20260505173333 | 77 | 223 | 6.0 | 8.0 | 0.00 | 0.08 | 0.08 | 41 | 1005.0 |
| 20260505172831 | 76 | 97 | 8.0 | 11.0 | 0.00 | 0.08 | 0.08 | 41 | 1005.4 |
| 20260505172328 | 77 | 170 | 4.0 | 6.0 | 0.00 | 0.08 | 0.08 | 44 | 1005.2 |
| 20260505171827 | 74 | 259 | 8.0 | 11.0 | 0.00 | 0.08 | 0.08 | 45 | 1005.3 |
| 20260505171325 | 74 | 209 | 8.0 | 11.0 | 0.00 | 0.08 | 0.08 | 46 | 1005.4 |
| 20260505170821 | 74 | 177 | 6.0 | 8.0 | 0.00 | 0.08 | 0.08 | 47 | 1005.5 |
| 20260505170318 | 75 | 316 | 4.0 | 6.0 | 0.00 | 0.08 | 0.08 | 47 | 1005.3 |
| 20260505165814 | 76 | 277 | 3.0 | 6.0 | 0.00 | 0.08 | 0.08 | 46 | 1005.2 |
| 20260505165309 | 76 | 265 | 4.0 | 6.0 | 0.00 | 0.08 | 0.08 | 46 | 1005.3 |
| 20260505164805 | 75 | 223 | 5.0 | 7.0 | 0.00 | 0.08 | 0.08 | 47 | 1005.5 |
| 20260505164303 | 75 | 101 | 3.0 | 6.0 | 0.00 | 0.08 | 0.08 | 49 | 1005.6 |
| 20260505163801 | 75 | 241 | 8.0 | 9.0 | 0.00 | 0.08 | 0.08 | 49 | 1005.6 |
| 20260505163259 | 75 | 219 | 7.0 | 9.0 | 0.00 | 0.08 | 0.08 | 47 | 1005.8 |
| 20260505162756 | 75 | 209 | 5.0 | 7.0 | 0.00 | 0.08 | 0.08 | 47 | 1005.7 |
| 20260505162253 | 74 | 264 | 2.0 | 3.0 | 0.00 | 0.08 | 0.08 | 51 | 1005.5 |
| 20260505161750 | 74 | 228 | 2.0 | 2.0 | 0.00 | 0.08 | 0.08 | 52 | 1005.8 |
| 20260505161247 | 75 | 233 | 6.0 | 9.0 | 0.00 | 0.08 | 0.08 | 49 | 1005.7 |
| 20260505160744 | 74 | 276 | 10.0 | 11.0 | 0.00 | 0.08 | 0.08 | 50 | 1006.0 |
| 20260505160242 | 74 | 260 | 5.0 | 6.0 | 0.00 | 0.08 | 0.08 | 51 | 1006.0 |
| 20260505153221 | 74 | 292 | 1.0 | 1.0 | 0.00 | 0.08 | 0.08 | 54 | 1006.0 |
| 20260505152718 | 73 | 211 | 4.0 | 6.0 | 0.00 | 0.08 | 0.08 | 54 | 1006.4 |
| 20260505152214 | 72 | 316 | 2.0 | 3.0 | 0.00 | 0.08 | 0.08 | 56 | 1006.3 |
| 20260505151709 | 71 | 154 | 6.0 | 7.0 | 0.00 | 0.08 | 0.08 | 56 | 1006.5 |
| 20260505151207 | 70 | 161 | 5.0 | 7.0 | 0.00 | 0.08 | 0.08 | 57 | 1006.5 |
| 20260505150703 | 71 | 197 | 5.0 | 6.0 | 0.00 | 0.08 | 0.08 | 57 | 1006.5 |
| 20260505150201 | 70 | 205 | 2.0 | 3.0 | 0.00 | 0.08 | 0.08 | 59 | 1006.5 |
| 20260505140633 | 67 | 167 | 4.0 | 6.0 | 0.00 | 0.08 | 0.08 | 65 | 1006.5 |
| 20260505140131 | 67 | 176 | 3.0 | 4.0 | 0.00 | 0.08 | 0.08 | 65 | 1006.6 |
| 20260505124544 | 62 | 59 | 2.0 | 2.0 | 0.00 | 0.08 | 0.08 | 74 | 1006.6 |
| 20260505124040 | 61 | 178 | 3.0 | 3.0 | 0.00 | 0.08 | 0.08 | 74 | 1006.9 |
| 20260505123536 | 62 | 224 | 1.0 | 2.0 | 0.00 | 0.08 | 0.08 | 75 | 1006.7 |
| 20260505123033 | 62 | 158 | 2.0 | 2.0 | 0.00 | 0.08 | 0.08 | 74 | 1006.8 |
| 20260505122530 | 61 | 131 | 3.0 | 6.0 | 0.00 | 0.08 | 0.08 | 74 | 1006.7 |
| 20260505122027 | 62 | 176 | 2.0 | 2.0 | 0.00 | 0.08 | 0.08 | 73 | 1006.8 |
| 20260505121523 | 62 | 183 | 2.0 | 2.0 | 0.00 | 0.08 | 0.08 | 76 | 1006.7 |
| 20260505121020 | 62 | 357 | 0.0 | 0.0 | 0.00 | 0.08 | 0.08 | 74 | 1006.7 |
| 20260505120516 | 61 | 337 | 0.0 | 1.0 | 0.00 | 0.08 | 0.08 | 77 | 1006.4 |
| 20260505120012 | 61 | 127 | 1.0 | 1.0 | 0.00 | 0.08 | 0.08 | 75 | 1006.6 |
| 20260505115507 | 60 | 24 | 0.0 | 0.0 | 0.00 | 0.08 | 0.08 | 78 | 1006.6 |
| 20260505115005 | 60 | 189 | 2.0 | 3.0 | 0.00 | 0.08 | 0.08 | 77 | 1006.6 |
| 20260505114501 | 60 | 211 | 4.0 | 6.0 | 0.00 | 0.08 | 0.08 | 77 | 1006.8 |
| 20260505113958 | 59 | 283 | 1.0 | 2.0 | 0.00 | 0.08 | 0.08 | 78 | 1006.5 |
| 20260505113454 | 58 | 217 | 2.0 | 2.0 | 0.00 | 0.08 | 0.08 | 80 | 1006.7 |
| 20260505112950 | 57 | 214 | 3.0 | 3.0 | 0.00 | 0.08 | 0.08 | 81 | 1006.6 |
| 20260505112447 | 57 | 213 | 4.0 | 4.0 | 0.00 | 0.08 | 0.08 | 83 | 1006.7 |
| 20260505111944 | 56 | 315 | 0.0 | 1.0 | 0.00 | 0.08 | 0.08 | 84 | 1006.4 |
| 20260505111438 | 54 | 304 | 1.0 | 1.0 | 0.00 | 0.08 | 0.08 | 90 | 1006.4 |
| 20260505110935 | 53 | 348 | 0.0 | 0.0 | 0.00 | 0.08 | 0.08 | 97 | 1006.4 |
| 20260505110432 | 52 | 349 | 0.0 | 0.0 | 0.00 | 0.08 | 0.08 | 99 | 1006.3 |
| 20260505101903 | 49 | 354 | 0.0 | 0.0 | 0.00 | 0.08 | 0.08 | 99 | 1005.9 |
| 20260505101357 | 50 | 262 | 1.0 | 1.0 | 0.00 | 0.08 | 0.08 | 99 | 1006.0 |
| 20260505100854 | 49 | 332 | 0.0 | 0.0 | 0.00 | 0.08 | 0.08 | 99 | 1006.0 |
| 20260505100350 | 49 | 332 | 1.0 | 2.0 | 0.00 | 0.08 | 0.08 | 99 | 1006.0 |
| 20260505095846 | 49 | 83 | 0.0 | 0.0 | 0.00 | 0.08 | 0.08 | 99 | 1005.9 |
| 20260505095344 | 50 | 5 | 0.0 | 0.0 | 0.00 | 0.08 | 0.08 | 99 | 1006.0 |
| 20260505094839 | 50 | 317 | 0.0 | 0.0 | 0.00 | 0.08 | 0.08 | 99 | 1006.0 |
| 20260505094336 | 50 | 346 | 0.0 | 0.0 | 0.00 | 0.08 | 0.08 | 99 | 1005.7 |
| 20260505093832 | 50 | 338 | 0.0 | 0.0 | 0.00 | 0.08 | 0.08 | 99 | 1005.9 |
| 20260505093330 | 50 | 334 | 0.0 | 0.0 | 0.00 | 0.08 | 0.08 | 99 | 1005.7 |
| 20260505092826 | 51 | 337 | 0.0 | 0.0 | 0.00 | 0.08 | 0.08 | 99 | 1005.9 |
| 20260505092325 | 51 | 332 | 0.0 | 0.0 | 0.00 | 0.08 | 0.08 | 99 | 1005.8 |
| 20260505091822 | 51 | 304 | 0.0 | 0.0 | 0.00 | 0.08 | 0.08 | 99 | 1005.7 |